FOLSOM LAKE (FOL)

Elevation: 466' · AMERICAN R basin · Operator: US Bureau of Reclamation

Provisional data, subject to change.
Query executed Monday at 12:36:32   clock

Select a sensor type for a plot of data.
Note: Reservoir Flows are daily averages.

Earlier

Date RES ELE    STORAGE    RES CHG    TOC STO    ABV TOC    OUTFLOW    INFLOW    EVAP    FNF    RIV REL    PPT INC    SPILL    DC PUMP    DIS PWR   
 FEET   AF   AF   AF   AF   CFS   CFS   CFS   CFS   CFS   INCHES   CFS   CFS   CFS  
08/02/2015 383.26 278415 -3755 977000 -- 2638 795 50 -94 0 0.00 0 34 2604
08/03/2015 382.54 274529 -3886 977000 -702471 2672 770 57 -134 e 0 0.00 0 34 2638
08/04/2015 381.72 270143 -4386 977000 -706857 2653 482 40 -134 e 0 0.00 0 36 2617
08/05/2015 380.93 265960 -4183 977000 -711040 2564 493 38 -134 e 0 0.00 0 35 2529
08/06/2015 380.34 262874 -3086 977000 -714126 2418 900 38 -134 e 0 0.00 0 34 2384
08/07/2015 379.85 260321 -2553 977000 -- 2409 1171 49 -134 e 0 0.00 0 31 2378
08/08/2015 379.18 256865 -3456 977000 -- 2593 897 46 -134 e 0 0.00 0 35 2558
08/09/2015 378.48 253294 -3571 977000 -723706 2626 874 48 -134 e 0 0.00 0 34 2592
08/10/2015 377.89 250303 -2991 977000 -726697 2348 896 56 19 e 0 0.00 0 32 2316
08/11/2015 377.22 246948 -3355 977000 -730052 2356 712 47 19 e 0 0.00 0 34 2322
08/12/2015 376.36 242690 -4258 977000 -734310 2768 658 37 -46 r 0 0.00 0 142 2626
08/13/2015 375.79 239894 -- 977000 -- 2256 900 54 -46 r 0 0.00 0 32 2224
08/14/2015 375.15 236786 -3108 977000 -- 2441 918 44 -46 r 0 0.00 0 74 2367
08/15/2015 374.47 233525 -3261 977000 -- 2608 1012 48 -46 e 0 0.00 0 144 2464
08/16/2015 373.73 230011 -3514 977000 -746989 2732 1017 57 -46 e 0 0.00 0 156 2576
08/17/2015 373.10 227052 -2959 977000 -749948 2382 949 59 -46 r 0 0.00 0 150 2232
08/18/2015 372.48 224182 -2870 977000 -752818 2092 696 51 -46 e 0 0.00 0 130 1962
08/19/2015 371.94 221694 -2488 977000 -755306 1737 534 51 -46 r 0 0.00 0 141 1596
08/20/2015 371.44 219426 -2268 977000 -757574 1901 795 37 -1 e 0 0.00 0 137 1764
08/21/2015 370.86 216808 -2618 977000 -- 2114 830 36 -1 e 0 0.00 0 141 1973
08/22/2015 370.32 214403 -2405 977000 -- 2111 934 36 -1 e 0 0.00 0 135 1976
08/23/2015 369.83 212235 -2168 977000 -764765 1994 938 37 -1 e 0 0.00 0 145 1849
08/24/2015 369.31 209963 -2272 977000 -767037 1974 870 41 -1 e 0 0.00 0 149 1825
08/25/2015 368.57 206767 -3196 977000 -770233 2162 593 42 -1 e 0 0.00 0 128 2034
08/26/2015 367.82 203571 -3196 977000 -773429 2133 562 40 -1 e 0 0.00 0 135 1998
08/27/2015 367.35 201600 -1971 977000 -775400 2022 1075 47 -1 e 0 0.00 0 138 1884
08/28/2015 366.94 199886 -1714 977000 -- 1920 1106 50 -- 0 0.00 0 137 1783
08/29/2015 366.53 198202 -1684 977000 -- 1855 1041 35 -- 0 0.00 0 144 1711
08/30/2015 366.14 196600 -1602 977000 -780400 1708 934 34 -- 0 0.00 0 153 1555
08/31/2015 -- -- -- -- -- -- -- -- -- -- -- -- -- --

Later | Latest

Warning! This data is preliminary and subject to revision.

Show FOL Map | Plot FOL Data | 1 Month FOL Data | Real-Time FOL Data | FOL Info